Vorticity
7 6 5 7 8 8 9 9 9 9 13 10 -4 -2 8 6 16 20 -3 -8 5 6 12 17 14 16 16 7 -1 -0 -1 -4 4 10 11 11 12 13 8 12 4 7 40 14 -25 -4 13 29 38 11 9 18 9 4 -1 -2 4 8 8 10 7 1 5 5 1 4 2 2 6 6 7 8 9 3 -0 4 5 8 7 4 6 5 5 9 7 8
8 8 9 11 11 11 10 8 9 7 8 3 -15 -13 1 -3 7 19 6 5 10 8 8 2 -1 7 15 14 -0 4 12 -1 -2 9 14 14 12 13 10 8 6 5 9 -11 -16 12 18 25 27 3 -4 2 1 -0 -2 3 11 11 5 5 6 3 5 4 5 9 3 4 6 4 7 7 4 2 2 7 7 7 8 7 9 7 5 8 8 8
9 11 14 15 13 12 10 8 10 8 6 8 -4 -10 -6 -12 -8 4 6 4 -4 -2 7 1 -2 6 14 14 0 10 24 1 -12 5 16 15 12 15 13 7 8 5 2 3 7 9 12 24 22 0 -10 -5 -2 -2 9 19 10 5 7 9 13 11 10 7 6 16 17 7 -1 -2 -0 -1 2 6 7 13 14 10 7 6 7 8 8 7 6 9
10 15 17 15 12 11 12 10 8 8 10 10 4 4 12 7 -8 -11 0 6 -1 3 21 33 34 21 14 19 9 7 16 4 -6 3 13 15 9 9 12 9 9 6 3 6 7 5 9 17 18 8 -8 -14 -9 0 15 15 3 6 9 7 12 13 12 7 4 18 22 3 -6 3 0 -8 2 10 3 2 6 5 4 6 6 7 11 7 5 12
8 13 13 10 9 7 5 7 7 8 13 11 7 10 16 17 7 1 6 7 6 8 0 -2 2 0 9 19 13 8 12 13 8 3 8 15 12 9 11 12 12 10 3 0 7 14 12 9 13 9 -10 -24 -20 5 17 2 -1 6 -1 -5 -0 5 7 5 9 17 15 4 3 15 9 -5 -1 8 7 2 2 3 3 7 6 2 4 4 9 12
7 11 9 7 17 21 9 3 5 8 11 8 7 10 11 14 14 12 7 -5 -1 13 3 -4 5 14 19 11 6 11 11 14 17 10 5 5 8 10 10 14 14 8 6 5 3 11 13 10 8 4 3 -4 -15 7 20 -2 -3 5 0 -0 -2 0 2 -2 5 9 6 10 14 16 11 5 6 8 9 6 3 5 4 5 6 6 6 5 9 9
7 10 6 -1 11 28 23 12 7 6 8 8 9 11 9 10 8 9 12 -3 -4 15 14 11 17 17 16 14 17 18 12 23 30 16 9 13 23 23 10 14 17 6 7 7 -1 7 12 7 8 4 14 20 -9 -7 13 -1 -1 8 8 10 3 5 12 6 9 6 -1 6 12 15 11 7 11 10 11 8 2 5 7 7 8 12 13 10 10 11
7 7 9 2 -1 7 14 20 17 8 8 10 12 10 8 14 13 12 17 -5 -23 -12 -9 -6 3 2 2 8 15 11 5 20 25 16 20 24 24 22 11 12 16 7 7 8 1 7 9 7 17 8 12 26 -6 -19 8 4 -1 6 7 13 7 6 10 4 7 7 4 11 12 10 10 5 5 9 13 11 4 4 9 12 10 8 10 12 15 14
9 11 12 1 -5 -6 -5 11 17 9 7 9 11 7 6 28 35 21 23 18 1 -7 -7 5 16 11 8 13 16 13 5 7 12 13 11 -4 -7 10 15 16 19 12 11 12 5 7 10 12 19 10 14 27 -1 -11 11 5 -1 5 2 6 5 7 11 5 12 16 7 11 10 3 8 7 4 9 12 7 5 8 8 8 9 10 12 11 13 18
5 21 26 3 5 15 5 8 15 10 7 8 11 0 -15 -0 15 4 8 28 27 9 4 19 22 6 2 12 17 15 8 1 6 14 7 -10 -6 10 9 8 16 12 9 12 9 9 12 14 14 9 14 21 6 4 11 1 3 8 4 9 8 12 22 10 13 28 22 17 15 9 14 12 7 9 8 5 5 6 4 4 8 11 9 2 7 17
-2 6 29 13 4 15 11 9 11 5 4 9 12 7 -7 -6 9 11 8 11 6 -6 -1 16 22 12 3 2 4 3 4 5 3 5 7 1 1 10 10 10 12 5 5 10 9 9 10 12 12 7 11 15 8 9 14 10 13 12 9 14 10 16 30 7 -19 -5 14 17 14 12 16 19 16 9 6 9 8 4 6 11 12 9 3 2 10 15
1 -20 1 11 -3 -2 11 20 16 8 4 7 11 10 5 -1 2 12 15 10 0 -5 4 13 14 14 8 3 4 2 4 13 13 8 8 1 -6 4 14 14 11 5 4 6 8 10 8 6 9 6 8 12 8 9 13 9 8 11 11 11 8 12 28 23 -4 -11 2 8 6 2 5 16 22 13 7 11 11 8 7 9 10 6 2 7 16 13
17 1 -2 8 6 -1 5 11 15 23 14 4 7 10 8 -0 -6 3 13 15 10 6 14 18 13 11 8 4 4 4 2 7 14 14 9 -3 -10 2 14 14 15 10 5 6 10 12 9 10 16 15 12 11 10 8 6 3 2 7 11 8 8 13 17 20 18 12 10 11 10 4 -0 6 12 10 10 12 13 10 8 11 13 9 5 8 11 6
16 25 9 4 14 12 9 6 6 20 21 13 15 12 11 11 4 5 11 12 9 9 17 21 15 7 4 6 7 10 10 4 6 11 12 6 2 10 15 12 13 11 8 12 10 9 12 13 17 24 22 15 12 7 0 5 7 5 9 6 5 14 14 10 15 18 12 9 10 8 4 3 4 5 9 14 15 9 8 13 13 10 10 11 10 5
7 12 6 3 14 19 22 22 15 12 12 18 25 17 10 15 16 12 9 11 10 8 9 11 14 11 5 6 10 14 15 7 3 8 15 15 8 10 13 9 8 8 9 12 12 17 21 16 19 29 26 12 8 9 3 4 8 5 6 7 3 8 10 6 13 16 6 1 6 8 6 5 6 5 5 13 17 11 12 15 11 10 12 12 13 9
9 10 10 5 5 10 13 17 17 9 1 7 17 14 6 8 13 9 1 4 9 10 8 6 11 14 7 -1 0 8 13 8 8 13 17 16 10 10 15 12 7 6 9 11 14 23 25 23 26 25 23 17 5 4 7 4 6 6 3 5 4 5 7 6 10 14 4 -2 4 8 6 5 7 8 3 7 14 13 15 16 12 14 15 11 11 9
4 9 16 7 -4 -1 6 14 19 10 -0 4 14 18 13 7 8 9 5 6 5 3 10 13 7 6 9 8 5 8 11 12 15 14 14 18 15 10 13 14 10 10 16 20 22 25 23 26 26 14 19 31 14 2 9 7 2 4 3 -0 -2 -0 5 6 10 13 4 -4 3 8 6 5 7 9 6 6 11 12 11 15 19 21 16 9 9 9
6 5 12 12 5 5 5 10 18 15 1 -4 5 19 20 11 7 7 5 10 13 5 2 7 4 3 13 16 10 6 9 18 21 15 13 17 15 10 11 13 11 9 10 9 14 21 22 25 24 14 12 21 17 10 11 8 3 5 6 3 2 0 -2 1 8 10 3 -0 9 11 5 4 8 11 12 14 16 10 8 18 24 17 7 1 5 10
12 8 5 5 8 16 15 8 11 17 12 -4 -7 4 11 9 9 10 5 1 8 8 4 8 11 11 10 3 3 9 11 14 16 15 12 10 12 13 13 10 7 10 17 12 5 7 13 14 12 13 9 5 16 20 10 5 2 3 9 11 10 -0 -7 3 11 6 3 5 10 14 9 5 6 8 11 17 17 10 13 19 12 7 11 12 11 11
11 11 10 6 2 8 14 13 9 11 17 13 -2 -8 0 6 5 12 19 14 9 6 4 8 8 7 6 2 6 12 9 10 16 20 15 8 9 12 17 20 6 2 18 21 7 3 13 10 -1 8 15 9 14 16 9 10 8 3 8 11 10 4 5 24 24 6 5 8 7 12 13 8 6 4 5 13 17 15 19 17 2 2 16 21 19 15
13 10 9 6 1 3 6 10 12 9 13 20 12 -2 -1 4 -1 -3 3 7 12 10 5 8 8 5 6 8 11 8 5 13 21 24 20 12 7 5 14 24 8 -3 9 12 4 4 11 6 -8 2 19 12 6 7 7 12 10 6 7 5 8 10 15 30 29 10 8 9 3 5 9 10 8 3 4 12 17 14 11 6 2 5 9 11 15 13
18 15 12 5 1 7 5 1 9 12 10 16 21 15 5 3 5 6 2 0 7 8 2 6 14 17 11 7 13 12 7 11 12 18 23 13 5 4 10 17 10 3 5 3 2 4 6 5 -2 6 22 16 5 5 7 10 9 8 9 5 9 15 15 17 15 10 8 5 4 8 12 12 7 6 11 14 13 11 6 4 8 10 8 9 11 12
15 14 16 9 -0 4 8 6 7 9 11 12 15 19 17 9 5 7 8 2 4 14 12 1 -0 7 4 3 17 18 6 7 10 15 19 12 5 6 8 13 14 11 6 1 1 2 7 8 -6 -11 3 11 8 4 5 10 11 10 10 8 10 15 14 9 7 8 9 2 0 7 12 11 8 9 11 9 10 10 9 8 11 10 8 10 14 17
11 9 12 9 2 -1 -0 2 2 3 14 20 14 11 14 17 13 9 9 4 3 9 10 1 -3 1 -0 5 26 30 17 16 20 15 11 11 10 8 6 9 12 14 11 7 3 2 7 6 -7 -12 -5 0 4 4 4 8 10 10 9 8 13 15 11 12 10 6 6 -0 -7 4 18 14 6 6 6 7 11 13 12 11 11 10 8 8 11 14
6 11 12 9 9 8 3 5 5 1 3 12 15 10 5 9 13 9 6 9 7 -4 -8 4 17 17 11 12 17 16 11 12 13 10 9 11 10 7 9 12 13 13 14 15 14 10 6 1 1 10 11 3 5 8 8 8 9 11 11 12 20 18 14 28 28 9 6 8 -3 6 24 17 5 10 17 18 17 13 13 13 10 10 10 8 9 10
7 14 15 10 8 9 6 7 9 4 -4 -1 9 11 5 4 7 7 3 6 14 13 7 9 11 9 12 18 15 5 1 4 6 7 10 11 10 6 8 13 17 15 14 17 16 11 10 9 8 13 12 7 10 12 9 9 8 8 11 18 21 12 10 34 37 10 3 12 3 2 18 17 6 10 15 13 10 8 10 12 12 12 12 10 9 8
4 7 13 13 9 8 5 2 8 13 7 2 3 9 11 4 1 6 7 1 1 9 8 -2 -1 8 7 3 7 9 7 7 7 8 11 11 11 9 7 10 14 14 13 16 16 11 11 13 11 10 12 11 12 11 8 10 9 6 9 18 18 7 5 20 25 12 5 9 5 4 14 16 8 5 5 3 2 8 12 11 11 13 11 10 9 8
5 2 4 6 8 11 7 0 6 17 17 10 4 5 9 6 1 4 10 10 2 4 12 8 6 14 5 -9 -1 11 13 13 10 8 10 11 10 9 8 9 11 13 14 16 20 19 16 14 11 11 13 12 11 11 10 10 8 4 9 21 20 12 11 14 15 18 17 10 5 9 14 14 10 7 7 8 7 11 14 9 6 7 8 9 9 9
9 8 8 7 5 7 7 3 3 6 8 9 9 9 9 7 5 2 1 7 5 5 20 21 6 6 15 19 21 17 10 12 14 11 9 8 8 9 7 7 9 11 14 13 12 12 12 13 12 10 10 10 9 10 10 10 7 0 5 21 21 12 15 18 13 15 20 15 11 13 13 12 11 6 5 10 11 9 11 10 6 6 8 9 10 10
10 7 9 9 5 2 5 9 5 -1 -0 6 9 12 13 9 10 11 4 2 4 1 1 4 3 6 13 16 17 15 10 7 8 10 10 7 7 8 7 7 7 8 10 12 11 9 7 8 9 8 8 9 9 9 9 10 10 4 4 15 18 13 17 25 21 15 16 17 16 19 19 14 10 5 5 12 13 10 9 6 2 3 7 9 10 11
16 10 6 5 5 4 5 8 7 4 3 7 8 7 7 5 2 7 10 10 11 5 -6 -2 7 1 -8 -9 -1 12 19 15 7 5 7 7 6 6 5 6 7 8 9 10 12 11 8 7 8 8 8 8 8 8 9 11 10 7 7 11 13 12 17 27 28 20 14 15 18 19 17 12 8 7 10 12 8 8 10 6 1 2 6 9 12 14
12 13 11 8 5 3 2 5 13 14 3 1 15 15 4 4 3 -1 8 21 27 22 14 15 16 6 1 4 2 4 12 12 8 7 7 7 6 5 6 7 7 8 8 9 12 12 10 8 8 8 9 9 8 7 8 9 8 7 11 15 12 8 10 18 25 23 20 20 19 14 12 13 13 14 16 16 14 13 14 10 2 1 7 11 12 14
14 13 15 17 14 6 1 -0 8 18 4 -4 24 31 3 3 25 24 15 16 20 22 19 16 16 13 12 11 4 2 5 2 1 6 7 8 8 7 7 7 6 6 6 6 8 9 9 9 9 9 9 7 7 7 7 8 9 10 13 18 19 12 7 9 13 16 19 18 16 16 17 16 14 13 11 13 16 20 24 17 4 3 11 12 10 13
18 13 10 13 15 13 11 5 4 17 8 -13 10 35 12 -4 11 14 2 -5 -4 3 8 7 11 14 12 9 6 6 7 4 4 7 6 5 6 4 4 6 6 6 6 5 6 6 6 6 7 8 9 6 5 8 8 8 10 11 8 12 18 17 13 11 9 10 13 12 9 10 12 9 10 11 8 6 6 10 19 19 5 -3 -1 -1 2 6
12 13 9 8 9 9 10 9 6 17 15 -13 -10 24 28 9 -4 -13 -12 -3 -1 1 4 2 4 7 7 8 9 6 6 9 10 10 7 5 4 3 3 4 5 5 5 5 5 6 6 6 6 6 7 5 3 5 8 8 10 11 7 5 10 15 15 13 9 8 10 11 10 10 9 8 9 8 6 10 12 6 7 13 9 -0 -4 1 10 11
7 14 16 13 12 8 7 11 12 15 17 2 -7 8 21 22 16 3 0 11 11 4 4 5 5 7 7 7 8 9 9 11 11 9 8 7 6 4 3 3 5 5 6 6 6 6 6 5 5 5 6 5 2 2 5 7 8 10 10 8 7 11 15 14 12 9 9 13 17 17 13 10 11 10 8 10 12 7 4 9 13 11 6 8 13 12
7 11 18 16 13 10 5 9 16 17 18 13 7 8 11 14 17 14 10 13 12 3 1 5 7 9 9 9 9 9 9 9 9 8 6 6 7 6 4 4 5 5 6 6 6 6 6 6 6 6 6 6 5 3 4 6 7 8 9 8 5 6 9 11 12 10 8 9 12 13 12 10 10 12 12 10 8 5 3 5 9 11 9 7 7 7
7 4 11 16 15 13 9 9 13 16 18 17 13 14 17 13 9 9 10 10 12 9 5 5 8 9 9 10 9 8 7 7 7 7 7 7 7 6 4 5 5 5 6 6 5 5 6 6 7 7 7 8 9 7 5 7 8 9 8 4 1 2 5 7 8 7 6 5 6 7 11 15 15 12 10 10 10 8 7 8 9 9 9 9 8 7
12 4 5 17 18 7 5 9 8 6 12 22 24 19 18 14 7 5 7 9 15 18 13 7 6 7 8 9 9 8 7 7 7 8 9 9 7 6 6 6 6 7 7 6 5 5 6 6 5 6 8 8 9 9 8 7 7 8 9 7 4 3 6 8 8 5 2 3 4 6 6 10 16 19 16 13 13 13 12 13 13 11 10 10 10 7
19 12 9 21 23 9 5 7 1 -4 4 21 34 32 22 16 14 11 8 9 12 15 16 15 11 7 5 6 8 8 7 7 8 8 9 9 8 6 6 6 6 6 7 7 6 5 5 5 5 5 7 7 9 10 9 8 7 8 8 8 8 8 7 8 10 8 5 3 4 7 7 1 -4 -1 3 3 4 5 5 4 5 7 6 5 6 8
22 22 19 19 19 16 16 12 2 4 9 10 21 35 34 24 20 17 11 8 6 1 4 13 17 11 5 4 7 8 8 7 7 6 8 9 8 7 7 7 8 7 5 5 6 6 5 5 5 6 7 7 9 11 11 9 8 8 7 5 4 6 7 5 5 6 7 7 6 9 14 11 3 -1 -0 0 1 4 5 4 3 4 5 3 6 12
19 24 23 15 12 15 24 23 13 13 17 8 2 16 29 29 27 26 21 18 15 7 3 11 17 14 7 5 6 8 9 8 6 6 8 10 10 10 11 9 9 11 10 7 5 5 4 4 5 6 7 8 9 11 12 11 9 10 12 10 6 5 7 7 5 3 4 8 11 11 13 15 12 9 7 5 4 5 7 9 8 8 9 9 7 8
19 20 15 7 6 5 10 20 15 6 11 13 3 2 11 17 22 27 27 26 23 17 12 13 16 14 10 8 7 7 8 8 7 6 8 10 9 9 14 16 14 13 13 11 8 7 6 6 6 6 6 7 8 8 8 13 17 14 11 13 12 6 3 4 7 6 3 5 9 11 12 12 8 7 7 6 6 6 6 8 10 9 11 13 10 4
18 18 11 13 19 8 -4 3 6 -2 3 12 8 3 3 2 5 18 29 35 36 30 19 15 15 15 12 11 10 10 11 10 10 10 12 12 7 3 8 16 18 20 22 20 15 11 8 5 6 7 8 5 4 5 7 14 23 22 16 17 21 19 17 17 17 15 11 10 12 13 14 13 11 11 11 11 11 12 10 9 10 10 10 12 12 9
19 16 5 11 23 15 4 11 15 8 8 11 8 7 6 0 1 9 12 16 25 32 28 20 17 14 11 10 11 11 13 14 14 14 15 15 11 5 -1 -6 -3 9 22 26 23 20 20 17 10 6 8 8 4 5 9 11 13 15 17 20 20 19 20 22 23 23 22 18 17 17 14 11 11 11 9 6 5 6 7 9 10 9 8 6 5 7
21 17 1 1 13 11 12 28 32 19 14 15 13 14 14 11 11 12 7 2 7 18 25 24 22 20 17 16 17 15 13 14 15 15 15 13 12 12 8 3 3 10 16 16 14 14 21 27 20 8 6 8 6 4 7 7 1 -5 -2 10 15 7 0 1 8 18 24 20 15 14 10 4 2 1 -2 -3 -1 1 4 7 7 6 6 6 5 5
18 20 7 5 13 12 10 25 35 31 27 27 25 23 21 18 14 12 11 10 10 16 22 23 22 23 21 21 23 21 16 14 14 16 17 15 13 14 14 16 19 17 12 9 9 7 10 18 21 15 11 11 10 8 8 10 8 -2 -10 -3 8 8 1 -2 2 10 16 13 6 2 -0 -2 1 4 4 6 9 11 11 11 11 10 10 8 7 6
11 17 16 13 12 4 -4 1 10 12 12 13 14 14 14 15 16 12 5 1 2 10 19 19 16 16 16 15 15 15 15 15 16 17 17 16 17 18 17 17 17 13 10 12 14 13 10 10 12 13 13 13 12 12 11 10 13 13 5 -1 3 8 8 6 6 9 12 11 6 2 3 5 8 9 9 10 11 11 13 14 16 16 14 12 12 11
5 6 14 19 18 15 10 9 8 7 8 7 6 6 5 6 10 11 7 3 -1 0 6 12 14 16 17 15 13 11 11 13 14 13 12 12 14 15 15 16 18 16 14 14 12 11 11 12 13 14 14 14 14 15 16 15 15 20 19 14 12 15 16 16 15 14 14 15 14 15 16 17 18 17 17 18 18 17 16 16 15 15 12 11 11 9
8 4 5 7 8 11 12 11 8 7 9 9 9 9 8 6 6 6 7 8 6 1 -1 2 6 7 7 8 10 9 9 10 10 11 11 11 11 11 11 12 15 16 15 14 12 10 8 8 9 10 10 11 12 13 15 17 15 14 15 14 13 10 9 9 9 5 2 -0 0 2 4 6 7 7 6 7 8 8 6 5 5 5 2 -0 1 2
12 10 8 5 4 4 5 7 9 8 7 6 6 7 7 8 9 9 7 8 8 7 5 4 4 4 2 2 3 3 3 5 5 5 6 7 7 7 6 6 7 9 10 10 8 8 7 4 5 8 8 9 10 9 9 10 10 8 8 11 14 13 9 7 7 7 6 4 3 3 5 6 6 5 3 3 1 -0 -1 -2 -1 0 0 -1 -1 0
Height
5741 5742 5743 5746 5748 5751 5753 5755 5757 5758 5759 5761 5765 5768 5769 5768 5769 5772 5774 5771 5770 5769 5766 5765 5769 5771 5773 5774 5775 5774 5773 5773 5772 5775 5777 5776 5777 5777 5775 5773 5773 5773 5775 5776 5778 5781 5784 5784 5785 5786 5782 5775 5771 5775 5779 5780 5780 5779 5779 5779 5779 5779 5780 5781 5782 5783 5785 5787 5788 5789 5790 5791 5793 5793 5793 5794 5795 5797 5798 5798 5799 5799 5799 5800 5801 5802
5736 5738 5740 5743 5746 5748 5750 5751 5752 5753 5755 5758 5758 5759 5762 5765 5768 5770 5772 5770 5769 5767 5763 5763 5766 5767 5769 5771 5771 5771 5772 5772 5769 5771 5775 5774 5773 5774 5772 5770 5770 5773 5774 5776 5777 5779 5780 5780 5779 5783 5785 5780 5773 5772 5775 5774 5772 5774 5774 5775 5775 5775 5776 5777 5777 5778 5780 5782 5785 5788 5789 5790 5791 5790 5790 5791 5793 5794 5796 5797 5797 5798 5798 5799 5800 5800
5732 5735 5738 5741 5743 5744 5745 5746 5747 5749 5752 5755 5752 5753 5757 5761 5763 5765 5766 5768 5767 5764 5761 5760 5761 5763 5765 5766 5767 5768 5769 5771 5767 5767 5771 5772 5770 5770 5769 5764 5764 5768 5770 5772 5774 5775 5776 5777 5776 5778 5781 5781 5776 5772 5772 5769 5769 5771 5773 5774 5775 5775 5775 5776 5776 5776 5777 5781 5785 5787 5787 5787 5787 5788 5787 5788 5790 5792 5794 5795 5795 5796 5797 5798 5798 5799
5729 5734 5737 5738 5739 5739 5740 5741 5743 5746 5749 5751 5749 5751 5756 5757 5759 5760 5762 5766 5766 5763 5761 5757 5756 5759 5762 5762 5764 5765 5766 5768 5766 5763 5766 5769 5767 5767 5767 5762 5759 5762 5764 5765 5769 5772 5773 5774 5775 5776 5778 5780 5777 5772 5770 5769 5771 5773 5774 5776 5776 5776 5776 5777 5777 5779 5780 5781 5783 5783 5783 5783 5785 5786 5785 5785 5788 5790 5791 5792 5793 5794 5795 5796 5797 5797
5726 5732 5734 5734 5734 5735 5737 5738 5739 5742 5745 5747 5746 5749 5753 5755 5756 5758 5760 5763 5763 5761 5757 5753 5753 5757 5759 5760 5761 5762 5762 5764 5764 5761 5761 5765 5765 5764 5765 5762 5758 5760 5761 5762 5767 5770 5771 5773 5774 5774 5774 5775 5772 5769 5770 5771 5773 5776 5776 5776 5776 5776 5777 5779 5781 5782 5781 5781 5781 5782 5782 5782 5784 5785 5786 5785 5786 5788 5789 5790 5790 5791 5792 5794 5795 5796
5724 5728 5730 5730 5730 5732 5733 5735 5736 5739 5741 5743 5744 5747 5750 5752 5753 5753 5756 5758 5758 5757 5755 5752 5751 5754 5756 5757 5758 5759 5758 5759 5761 5760 5758 5760 5761 5761 5761 5758 5758 5759 5759 5761 5765 5767 5769 5771 5771 5770 5770 5769 5766 5767 5771 5772 5774 5775 5774 5775 5775 5777 5778 5780 5782 5781 5780 5780 5781 5783 5783 5782 5783 5785 5786 5785 5785 5786 5787 5787 5788 5790 5791 5792 5793 5794
5722 5725 5726 5727 5728 5729 5730 5731 5733 5735 5738 5740 5742 5745 5746 5748 5748 5749 5751 5754 5755 5756 5755 5752 5751 5751 5753 5753 5755 5756 5755 5755 5756 5757 5756 5755 5756 5758 5757 5754 5754 5757 5757 5758 5760 5763 5766 5768 5767 5766 5766 5765 5765 5769 5771 5771 5772 5773 5772 5773 5774 5777 5779 5780 5781 5780 5779 5780 5781 5782 5782 5782 5782 5783 5784 5784 5785 5785 5786 5787 5788 5789 5790 5792 5792 5792
5719 5721 5723 5724 5726 5727 5727 5728 5730 5733 5735 5738 5741 5742 5742 5744 5745 5746 5748 5748 5750 5750 5750 5750 5750 5750 5750 5751 5753 5755 5755 5755 5754 5755 5755 5753 5752 5754 5754 5752 5751 5753 5754 5755 5757 5759 5763 5764 5764 5762 5761 5764 5765 5767 5769 5770 5771 5771 5771 5771 5773 5776 5777 5778 5779 5780 5780 5780 5780 5781 5781 5781 5781 5781 5782 5783 5785 5785 5786 5787 5787 5788 5789 5791 5790 5790
5716 5718 5720 5721 5722 5723 5724 5726 5728 5730 5732 5735 5738 5739 5741 5742 5741 5743 5744 5744 5745 5745 5745 5746 5748 5748 5747 5748 5750 5751 5752 5753 5753 5754 5755 5753 5750 5751 5751 5749 5749 5750 5751 5753 5754 5756 5758 5760 5760 5758 5759 5763 5762 5763 5768 5769 5769 5769 5769 5770 5771 5774 5775 5776 5778 5779 5779 5779 5779 5779 5779 5779 5779 5780 5781 5783 5784 5784 5785 5785 5786 5787 5788 5789 5789 5788
5714 5716 5717 5718 5718 5719 5721 5723 5725 5728 5729 5732 5735 5736 5738 5740 5738 5738 5740 5741 5743 5742 5742 5743 5746 5746 5745 5746 5748 5747 5748 5749 5749 5751 5751 5749 5748 5748 5748 5746 5746 5747 5748 5750 5751 5752 5753 5753 5754 5754 5757 5760 5758 5762 5767 5766 5765 5765 5765 5767 5770 5771 5773 5774 5775 5775 5776 5776 5776 5777 5777 5778 5778 5779 5781 5781 5782 5782 5783 5783 5784 5785 5787 5788 5787 5787
5713 5714 5713 5714 5716 5717 5719 5721 5722 5724 5726 5728 5731 5732 5734 5735 5734 5735 5736 5738 5738 5738 5739 5741 5743 5744 5743 5744 5745 5744 5745 5746 5746 5746 5746 5746 5747 5747 5747 5744 5743 5744 5745 5747 5748 5749 5749 5749 5750 5751 5754 5756 5755 5760 5764 5763 5762 5762 5762 5765 5768 5769 5771 5771 5771 5772 5773 5773 5774 5776 5777 5777 5778 5779 5779 5780 5780 5780 5780 5781 5782 5783 5784 5786 5787 5787
5709 5710 5709 5710 5713 5714 5717 5718 5719 5722 5723 5725 5728 5729 5731 5732 5732 5732 5733 5734 5734 5734 5738 5740 5741 5742 5741 5742 5741 5739 5741 5743 5743 5743 5744 5746 5746 5746 5744 5741 5741 5743 5744 5745 5746 5746 5745 5746 5748 5748 5750 5752 5753 5756 5760 5760 5760 5759 5760 5763 5765 5767 5768 5767 5768 5770 5771 5771 5772 5773 5774 5775 5776 5777 5777 5778 5778 5778 5778 5778 5779 5781 5782 5783 5785 5786
5706 5708 5707 5708 5710 5712 5714 5716 5717 5719 5720 5722 5725 5726 5728 5730 5730 5730 5731 5731 5731 5733 5736 5738 5739 5740 5739 5738 5736 5735 5738 5741 5741 5741 5742 5744 5744 5743 5741 5739 5740 5742 5743 5743 5743 5742 5742 5743 5745 5746 5748 5751 5752 5754 5755 5756 5757 5758 5759 5760 5762 5764 5765 5764 5765 5768 5769 5769 5769 5769 5770 5771 5773 5774 5774 5775 5776 5776 5776 5777 5778 5779 5780 5781 5782 5784
5703 5705 5706 5706 5707 5709 5712 5714 5715 5717 5718 5719 5722 5724 5725 5727 5728 5728 5729 5730 5730 5731 5734 5735 5737 5737 5735 5733 5732 5734 5736 5738 5740 5740 5740 5741 5741 5741 5738 5737 5739 5740 5741 5741 5740 5739 5739 5741 5743 5745 5747 5749 5751 5751 5751 5752 5754 5755 5756 5757 5759 5761 5761 5761 5763 5765 5766 5766 5766 5766 5766 5767 5768 5770 5771 5772 5773 5774 5774 5776 5777 5777 5778 5779 5780 5781
5700 5701 5703 5704 5706 5707 5709 5711 5713 5716 5717 5718 5720 5722 5722 5724 5725 5727 5728 5728 5728 5729 5730 5732 5733 5732 5730 5729 5731 5733 5734 5736 5738 5738 5738 5738 5738 5738 5737 5736 5737 5737 5738 5739 5738 5737 5737 5738 5740 5741 5743 5746 5747 5747 5746 5747 5750 5750 5752 5754 5756 5758 5758 5759 5760 5761 5763 5763 5763 5763 5763 5764 5765 5766 5768 5769 5770 5771 5772 5774 5774 5775 5776 5777 5778 5779
5698 5698 5700 5702 5704 5705 5706 5708 5710 5713 5715 5716 5717 5718 5719 5721 5723 5725 5726 5725 5725 5726 5727 5728 5728 5727 5727 5727 5729 5731 5732 5734 5734 5734 5735 5734 5735 5735 5735 5735 5734 5734 5735 5736 5736 5735 5735 5736 5737 5737 5739 5741 5742 5740 5739 5741 5744 5746 5748 5750 5752 5754 5755 5756 5757 5758 5759 5760 5760 5760 5761 5761 5762 5764 5765 5766 5767 5768 5769 5770 5771 5772 5773 5775 5776 5777
5695 5697 5698 5699 5702 5703 5704 5706 5708 5709 5713 5714 5714 5715 5717 5720 5722 5722 5723 5722 5722 5723 5724 5725 5725 5725 5727 5726 5727 5729 5730 5731 5732 5732 5731 5731 5731 5732 5732 5731 5730 5729 5730 5732 5732 5732 5731 5731 5733 5734 5735 5736 5737 5738 5738 5740 5744 5747 5749 5751 5752 5753 5752 5753 5754 5755 5756 5756 5757 5757 5757 5758 5759 5761 5762 5763 5764 5765 5766 5767 5768 5769 5770 5772 5774 5775
5693 5694 5696 5697 5699 5701 5702 5705 5705 5706 5709 5711 5712 5713 5716 5718 5719 5720 5720 5720 5720 5720 5721 5723 5723 5723 5724 5724 5726 5728 5728 5728 5729 5729 5729 5728 5728 5728 5728 5728 5727 5727 5728 5729 5729 5728 5727 5728 5730 5731 5733 5735 5736 5737 5740 5743 5746 5749 5751 5751 5753 5753 5752 5751 5751 5751 5752 5753 5753 5753 5753 5754 5755 5757 5758 5760 5761 5763 5764 5764 5765 5767 5769 5771 5772 5772
5690 5691 5694 5695 5697 5699 5700 5702 5703 5704 5706 5708 5710 5712 5714 5716 5716 5716 5717 5717 5718 5718 5719 5721 5721 5719 5719 5722 5724 5726 5725 5725 5726 5727 5726 5726 5726 5726 5727 5726 5727 5728 5728 5728 5728 5728 5727 5727 5729 5731 5733 5734 5734 5736 5739 5741 5744 5746 5748 5748 5749 5749 5750 5751 5751 5751 5751 5750 5749 5749 5750 5751 5752 5754 5756 5757 5759 5761 5761 5762 5764 5766 5767 5768 5769 5770
5687 5688 5691 5693 5695 5696 5697 5699 5700 5701 5703 5705 5707 5708 5710 5712 5713 5714 5714 5714 5716 5716 5716 5719 5718 5715 5715 5719 5721 5722 5723 5723 5724 5724 5724 5723 5723 5724 5725 5725 5726 5728 5727 5726 5727 5727 5728 5727 5728 5729 5730 5731 5732 5734 5737 5738 5740 5743 5744 5745 5745 5746 5748 5748 5748 5749 5749 5749 5748 5747 5748 5750 5751 5753 5754 5756 5757 5759 5759 5761 5762 5764 5765 5766 5767 5768
5685 5686 5688 5691 5693 5694 5695 5696 5697 5700 5702 5703 5705 5706 5707 5709 5710 5711 5711 5712 5713 5713 5714 5716 5714 5712 5714 5717 5718 5719 5720 5720 5721 5721 5720 5721 5721 5722 5723 5723 5723 5724 5725 5724 5725 5726 5727 5727 5728 5729 5730 5730 5732 5733 5734 5736 5738 5740 5741 5742 5743 5743 5744 5744 5745 5745 5745 5746 5746 5747 5748 5749 5751 5753 5754 5755 5756 5757 5758 5760 5761 5762 5763 5764 5765 5766
5682 5683 5686 5689 5690 5691 5693 5694 5696 5698 5700 5701 5702 5704 5706 5707 5708 5709 5709 5709 5710 5711 5712 5712 5710 5710 5713 5715 5716 5717 5717 5717 5717 5716 5716 5717 5718 5719 5720 5721 5722 5723 5724 5724 5724 5725 5725 5725 5727 5729 5731 5731 5732 5732 5733 5735 5736 5737 5738 5739 5739 5739 5739 5739 5741 5743 5743 5744 5745 5746 5748 5749 5750 5752 5753 5753 5754 5756 5757 5758 5760 5761 5762 5763 5763 5764
5678 5679 5682 5685 5687 5689 5691 5693 5695 5696 5697 5699 5700 5702 5703 5705 5706 5707 5707 5707 5708 5709 5710 5708 5706 5707 5711 5713 5714 5714 5714 5714 5714 5713 5713 5714 5715 5717 5718 5719 5721 5722 5723 5723 5723 5724 5724 5725 5727 5729 5731 5732 5732 5733 5733 5734 5734 5735 5736 5736 5736 5736 5736 5736 5738 5740 5742 5743 5743 5744 5745 5747 5749 5750 5751 5752 5753 5755 5756 5757 5758 5759 5760 5761 5762 5763
5674 5675 5677 5681 5684 5686 5688 5690 5691 5693 5694 5696 5697 5699 5700 5702 5704 5705 5704 5703 5704 5706 5706 5705 5705 5706 5709 5711 5712 5711 5712 5712 5712 5711 5712 5713 5713 5715 5717 5718 5719 5721 5721 5722 5722 5722 5723 5724 5726 5728 5731 5732 5732 5733 5733 5732 5732 5733 5734 5734 5733 5733 5733 5734 5736 5738 5740 5741 5742 5742 5743 5745 5747 5748 5750 5751 5752 5753 5754 5755 5756 5757 5758 5759 5761 5762
5672 5673 5675 5678 5681 5683 5685 5686 5688 5689 5691 5693 5694 5696 5698 5701 5702 5701 5699 5699 5701 5703 5703 5703 5704 5704 5707 5709 5710 5710 5710 5709 5710 5710 5711 5712 5713 5714 5716 5717 5718 5719 5720 5720 5720 5720 5720 5722 5724 5727 5730 5731 5731 5732 5731 5731 5731 5730 5731 5731 5731 5731 5730 5730 5733 5736 5738 5739 5740 5740 5741 5742 5744 5746 5748 5750 5751 5752 5752 5753 5753 5754 5756 5757 5759 5760
5670 5671 5673 5675 5677 5679 5681 5682 5683 5685 5686 5688 5691 5693 5695 5699 5699 5696 5696 5697 5699 5701 5701 5700 5701 5703 5705 5706 5708 5708 5708 5707 5708 5709 5710 5712 5713 5713 5714 5715 5716 5717 5717 5718 5718 5719 5719 5720 5723 5726 5728 5729 5730 5730 5729 5729 5728 5728 5728 5728 5728 5728 5727 5727 5730 5733 5735 5736 5737 5738 5739 5740 5742 5744 5746 5748 5749 5749 5750 5750 5751 5752 5753 5755 5756 5758
5667 5669 5670 5672 5675 5676 5676 5676 5678 5680 5681 5684 5687 5689 5691 5694 5693 5692 5693 5694 5695 5698 5698 5697 5699 5702 5704 5704 5705 5706 5706 5706 5707 5708 5710 5711 5712 5712 5713 5713 5714 5715 5715 5716 5717 5718 5719 5720 5722 5724 5726 5727 5728 5728 5727 5727 5726 5726 5725 5725 5724 5724 5724 5726 5728 5730 5732 5733 5735 5736 5738 5740 5742 5743 5745 5746 5747 5747 5748 5748 5749 5750 5751 5753 5754 5756
5664 5665 5667 5670 5672 5672 5672 5674 5677 5678 5678 5680 5682 5684 5686 5688 5687 5687 5689 5690 5693 5694 5694 5694 5697 5700 5702 5703 5703 5704 5705 5706 5707 5708 5710 5711 5711 5712 5712 5712 5713 5714 5714 5715 5716 5717 5718 5719 5720 5723 5725 5725 5726 5725 5725 5724 5724 5724 5723 5722 5722 5723 5723 5724 5725 5727 5729 5731 5733 5734 5736 5738 5740 5742 5743 5745 5746 5746 5746 5746 5747 5749 5749 5751 5752 5753
5661 5662 5664 5667 5668 5668 5670 5673 5675 5676 5677 5677 5678 5679 5682 5684 5683 5683 5684 5687 5690 5691 5691 5693 5696 5698 5700 5701 5702 5703 5704 5705 5706 5707 5709 5710 5711 5711 5711 5712 5712 5713 5713 5714 5715 5717 5717 5718 5719 5721 5723 5723 5723 5723 5723 5722 5722 5722 5721 5720 5721 5721 5721 5722 5723 5725 5727 5728 5730 5732 5734 5736 5738 5740 5741 5742 5743 5744 5744 5745 5746 5747 5747 5748 5749 5750
5657 5658 5661 5663 5664 5666 5668 5670 5671 5673 5674 5675 5675 5676 5679 5680 5680 5681 5682 5684 5686 5688 5689 5692 5694 5696 5698 5699 5701 5702 5702 5703 5705 5706 5707 5709 5709 5710 5711 5711 5711 5712 5712 5713 5714 5715 5716 5716 5718 5719 5721 5721 5722 5722 5721 5721 5720 5720 5719 5719 5719 5720 5720 5721 5721 5722 5723 5725 5728 5730 5732 5733 5735 5737 5738 5739 5740 5741 5742 5742 5744 5744 5745 5746 5747 5748
5653 5654 5657 5659 5661 5664 5666 5667 5668 5669 5670 5672 5674 5674 5675 5677 5677 5679 5681 5682 5684 5686 5687 5690 5693 5695 5696 5698 5700 5701 5701 5702 5703 5704 5706 5707 5708 5709 5710 5710 5710 5711 5711 5712 5713 5714 5714 5715 5716 5718 5719 5720 5720 5720 5720 5719 5718 5718 5717 5717 5718 5719 5719 5719 5720 5720 5721 5723 5725 5727 5729 5731 5732 5734 5735 5736 5738 5739 5740 5741 5742 5742 5743 5744 5745 5746
5650 5651 5653 5656 5658 5660 5662 5663 5664 5665 5667 5669 5670 5671 5673 5674 5675 5677 5679 5680 5681 5683 5685 5688 5690 5692 5694 5696 5697 5699 5700 5701 5702 5703 5704 5705 5706 5707 5708 5709 5710 5710 5711 5711 5712 5713 5713 5714 5715 5716 5717 5718 5718 5718 5718 5717 5717 5716 5716 5716 5717 5718 5718 5718 5718 5719 5720 5721 5723 5725 5726 5728 5730 5731 5732 5734 5735 5736 5737 5738 5739 5741 5742 5743 5744 5745
5646 5648 5650 5653 5654 5656 5658 5659 5660 5661 5663 5665 5666 5668 5670 5671 5672 5674 5676 5678 5679 5681 5683 5685 5687 5690 5692 5694 5695 5696 5698 5699 5701 5702 5703 5704 5704 5705 5706 5707 5708 5709 5709 5710 5710 5711 5712 5712 5713 5714 5715 5716 5716 5716 5716 5716 5716 5715 5715 5715 5716 5717 5718 5718 5718 5718 5719 5720 5721 5723 5724 5726 5728 5729 5730 5731 5732 5733 5734 5736 5737 5739 5740 5741 5742 5743
5642 5644 5646 5648 5650 5652 5654 5655 5655 5657 5659 5662 5663 5665 5666 5667 5668 5671 5673 5675 5677 5679 5681 5683 5685 5687 5689 5690 5692 5693 5695 5697 5698 5700 5701 5701 5702 5703 5704 5705 5706 5707 5707 5708 5708 5709 5710 5710 5711 5711 5713 5714 5714 5715 5715 5714 5715 5715 5714 5714 5715 5715 5716 5718 5718 5718 5718 5719 5720 5721 5723 5724 5726 5727 5728 5728 5729 5731 5732 5734 5735 5737 5738 5739 5740 5741
5639 5640 5642 5644 5646 5647 5649 5651 5651 5652 5656 5658 5660 5661 5662 5663 5665 5668 5670 5672 5674 5675 5677 5680 5682 5684 5685 5687 5689 5690 5692 5693 5695 5697 5698 5699 5700 5701 5702 5702 5703 5704 5705 5705 5706 5707 5707 5708 5708 5709 5710 5711 5712 5713 5713 5713 5713 5713 5714 5713 5713 5714 5715 5716 5717 5717 5718 5719 5719 5720 5721 5723 5724 5726 5726 5727 5728 5729 5730 5732 5733 5734 5736 5737 5738 5739
5635 5637 5638 5641 5643 5644 5646 5648 5648 5649 5652 5655 5656 5658 5659 5660 5662 5665 5667 5669 5671 5672 5674 5676 5678 5680 5682 5684 5685 5687 5688 5690 5692 5693 5695 5696 5697 5698 5699 5700 5701 5702 5702 5703 5703 5704 5704 5705 5706 5706 5707 5708 5710 5710 5711 5711 5711 5712 5712 5712 5712 5712 5713 5715 5716 5716 5717 5717 5718 5719 5720 5721 5722 5723 5724 5725 5726 5727 5728 5729 5730 5731 5733 5734 5735 5736
5631 5633 5635 5637 5639 5641 5643 5645 5646 5647 5648 5650 5652 5655 5656 5658 5659 5661 5663 5665 5667 5669 5670 5673 5675 5677 5679 5680 5682 5683 5685 5687 5688 5690 5692 5693 5694 5695 5696 5697 5698 5699 5700 5700 5700 5701 5701 5702 5703 5704 5704 5705 5707 5708 5708 5709 5709 5710 5710 5711 5710 5710 5712 5713 5714 5715 5716 5716 5717 5718 5718 5719 5720 5721 5722 5723 5724 5725 5725 5726 5727 5728 5730 5730 5732 5733
5627 5630 5632 5634 5636 5638 5640 5642 5644 5644 5645 5646 5648 5650 5653 5655 5656 5658 5659 5661 5663 5665 5666 5669 5671 5673 5675 5677 5678 5680 5682 5683 5685 5687 5689 5690 5691 5692 5693 5694 5695 5696 5697 5697 5698 5698 5699 5700 5700 5701 5702 5703 5704 5705 5706 5707 5707 5708 5708 5709 5709 5709 5709 5711 5712 5713 5714 5715 5716 5717 5716 5717 5718 5719 5720 5720 5721 5722 5722 5723 5725 5726 5727 5727 5728 5729
5624 5626 5629 5631 5633 5635 5637 5639 5640 5642 5643 5644 5644 5646 5648 5650 5652 5655 5656 5657 5659 5661 5663 5665 5667 5669 5671 5673 5675 5676 5679 5680 5682 5684 5685 5687 5688 5689 5690 5691 5692 5693 5694 5695 5695 5696 5696 5697 5697 5698 5699 5700 5701 5702 5703 5704 5705 5705 5706 5706 5707 5707 5707 5708 5709 5711 5712 5713 5714 5715 5715 5715 5716 5717 5717 5718 5718 5720 5720 5721 5722 5723 5724 5724 5725 5726
5620 5623 5626 5628 5630 5633 5634 5636 5638 5640 5641 5641 5641 5642 5644 5646 5649 5651 5651 5653 5655 5657 5659 5661 5663 5666 5668 5670 5672 5673 5675 5677 5678 5680 5682 5683 5684 5685 5687 5688 5689 5690 5691 5692 5693 5693 5694 5694 5695 5695 5696 5697 5698 5699 5700 5701 5702 5702 5703 5703 5704 5704 5705 5705 5706 5708 5709 5710 5711 5712 5713 5713 5714 5714 5715 5716 5716 5718 5719 5719 5719 5720 5721 5721 5722 5723
5617 5620 5623 5626 5629 5631 5632 5634 5636 5637 5638 5639 5639 5639 5641 5643 5645 5646 5647 5649 5652 5654 5656 5658 5660 5662 5664 5666 5668 5670 5672 5673 5675 5677 5678 5680 5681 5682 5683 5685 5686 5687 5688 5689 5689 5690 5691 5691 5692 5693 5693 5694 5695 5696 5696 5697 5698 5699 5700 5700 5701 5701 5702 5703 5703 5704 5705 5706 5707 5708 5710 5711 5711 5712 5713 5713 5714 5715 5716 5717 5717 5718 5718 5719 5719 5720
5615 5617 5620 5623 5626 5627 5629 5631 5633 5635 5636 5637 5637 5638 5639 5640 5642 5643 5644 5646 5649 5651 5653 5655 5656 5658 5661 5663 5664 5666 5668 5670 5672 5673 5675 5676 5677 5679 5680 5681 5682 5683 5684 5685 5686 5687 5688 5688 5689 5690 5690 5691 5692 5693 5693 5694 5694 5695 5696 5697 5697 5698 5699 5700 5700 5701 5702 5703 5704 5705 5706 5707 5708 5709 5710 5710 5711 5712 5713 5714 5715 5715 5715 5716 5716 5717
5614 5616 5618 5621 5623 5625 5627 5629 5631 5632 5634 5635 5636 5637 5638 5639 5640 5641 5642 5644 5646 5648 5650 5651 5653 5655 5657 5659 5661 5663 5664 5666 5668 5669 5671 5672 5674 5675 5677 5677 5678 5679 5680 5681 5682 5683 5684 5685 5686 5687 5687 5688 5689 5690 5690 5690 5690 5691 5692 5693 5694 5694 5695 5696 5697 5698 5699 5700 5700 5701 5702 5703 5705 5706 5707 5707 5708 5709 5710 5711 5711 5712 5712 5713 5713 5714
5613 5615 5617 5619 5622 5624 5625 5627 5629 5631 5632 5633 5634 5635 5636 5638 5639 5640 5641 5642 5644 5645 5647 5649 5651 5652 5655 5657 5658 5660 5661 5663 5664 5666 5667 5669 5670 5672 5673 5674 5675 5675 5676 5677 5678 5680 5681 5683 5683 5684 5684 5685 5686 5687 5688 5688 5688 5688 5688 5690 5691 5691 5692 5693 5694 5695 5696 5697 5697 5698 5699 5700 5701 5702 5703 5704 5705 5705 5706 5707 5707 5708 5708 5709 5709 5710
5613 5615 5617 5618 5620 5622 5624 5625 5627 5628 5630 5631 5633 5634 5635 5636 5638 5639 5641 5641 5642 5644 5645 5647 5648 5650 5652 5654 5655 5657 5658 5659 5661 5662 5664 5665 5666 5668 5669 5671 5672 5673 5674 5674 5675 5676 5678 5679 5680 5680 5681 5682 5683 5684 5685 5686 5687 5686 5687 5687 5688 5688 5689 5690 5691 5692 5693 5693 5694 5695 5696 5697 5698 5699 5700 5701 5701 5702 5702 5703 5703 5703 5704 5704 5705 5706
5613 5614 5616 5618 5619 5621 5622 5623 5625 5626 5628 5630 5631 5633 5634 5635 5637 5639 5640 5641 5642 5643 5644 5645 5647 5648 5650 5651 5653 5654 5655 5656 5658 5659 5660 5662 5663 5664 5665 5667 5668 5669 5671 5671 5672 5673 5674 5675 5676 5676 5677 5678 5680 5681 5681 5682 5683 5684 5684 5685 5686 5686 5687 5687 5688 5689 5690 5691 5692 5693 5693 5694 5695 5696 5697 5697 5698 5698 5699 5699 5699 5699 5700 5700 5701 5701
5612 5614 5615 5617 5619 5620 5621 5622 5623 5625 5626 5628 5630 5631 5633 5634 5636 5637 5639 5640 5641 5642 5643 5644 5645 5646 5648 5649 5651 5652 5653 5654 5655 5656 5657 5658 5659 5660 5662 5663 5664 5666 5667 5668 5669 5670 5671 5671 5672 5673 5674 5675 5676 5677 5677 5678 5680 5680 5681 5683 5684 5684 5685 5685 5686 5687 5688 5689 5689 5690 5691 5691 5692 5692 5693 5694 5694 5695 5695 5695 5695 5696 5696 5696 5697 5697
5611 5613 5615 5616 5618 5619 5621 5622 5623 5625 5626 5628 5629 5631 5632 5633 5635 5636 5637 5639 5640 5641 5642 5643 5644 5645 5646 5647 5649 5650 5651 5652 5653 5654 5655 5656 5657 5657 5658 5659 5661 5662 5664 5665 5666 5667 5668 5669 5669 5670 5670 5671 5672 5672 5673 5674 5676 5677 5678 5679 5680 5681 5682 5682 5683 5684 5685 5686 5686 5687 5687 5688 5688 5689 5689 5690 5690 5691 5691 5691 5692 5692 5692 5692 5693 5693
5612 5613 5614 5616 5617 5619 5620 5621 5623 5625 5626 5628 5629 5630 5631 5632 5634 5635 5636 5637 5638 5639 5640 5641 5642 5644 5645 5646 5647 5647 5648 5649 5650 5651 5652 5653 5654 5655 5656 5657 5658 5659 5661 5662 5663 5664 5664 5665 5666 5667 5667 5668 5668 5669 5670 5671 5672 5673 5674 5675 5676 5677 5678 5679 5679 5680 5681 5682 5682 5683 5684 5684 5684 5685 5685 5686 5686 5687 5687 5687 5688 5688 5688 5688 5689 5689
5612 5613 5614 5616 5617 5618 5620 5621 5623 5624 5625 5627 5628 5629 5630 5631 5633 5634 5635 5636 5637 5638 5639 5640 5641 5642 5642 5643 5644 5645 5646 5647 5648 5649 5650 5651 5652 5653 5654 5655 5656 5657 5658 5659 5660 5660 5661 5662 5663 5663 5664 5665 5665 5666 5666 5667 5668 5669 5670 5671 5672 5673 5674 5674 5675 5676 5677 5678 5678 5679 5680 5680 5681 5681 5681 5682 5682 5683 5683 5683 5683 5684 5684 5684 5684 5684
5611 5613 5615 5616 5617 5618 5620 5621 5622 5624 5625 5626 5627 5628 5629 5630 5631 5632 5633 5634 5636 5637 5638 5639 5639 5640 5641 5641 5642 5643 5644 5644 5645 5646 5647 5648 5649 5650 5651 5652 5653 5654 5655 5656 5656 5657 5658 5658 5659 5660 5660 5661 5661 5662 5663 5663 5664 5665 5666 5666 5667 5668 5669 5670 5671 5671 5672 5673 5674 5675 5675 5676 5677 5677 5677 5677 5678 5678 5678 5678 5678 5678 5679 5679 5679 5679